Location: Pedholt
(56.0260°N, 10.2097°E)
Time: 22:09:14
(UTC+00:00)

Transit 2A Rocket - Pass Details

Date: 03 August 2021
Orbit: 586 x 917 km, 66.7° (Epoch: 26 September)

Event Time Altitude Azimuth Distance (km) Brightness Sun altitude
Rises 14:08:34 0° 229° (SW) 2,900 8.9 40.6°
Reaches altitude 10° 14:10:45 10° 231° (SW) 2,033 8.4 40.4°
Maximum altitude 14:15:21 75° 317° (NW) 712 5.6 39.8°
Drops below altitude 10° 14:20:25 10° 43° (NE) 2,242 7.1 39.2°
Sets 14:22:56 0° 45° (NE) 3,225 7.8 38.9°
